Home > Weather > Paradise > Past weeks

Flag for Canada Past Weather in Paradise, Newfoundland and Labrador, Canada — Yesterday and Last 2 Weeks

Now
32 °F

Clear.


Feels Like: 32 °F
Forecast: 31 / 56 °F
Wind: 2 mph from Southwest

Location: St. John's

Current Time: May 30, 2016 at 4:33:40 AM

Latest Report: May 30, 2016 at 3:30 AM


Visibility: 15 mi

Pressure: 30.25 "Hg

Humidity: 93%

Dew Point: 30 °F

Location of ParadiseLocation

Past Weather in Paradise — Graph

°F

Paradise Temperature Yesterday

Maximum temperature yesterday: 37 °F (at 11:30 AM)
Minimum temperature yesterday: 32 °F (at 9:30 PM)
Average temperature yesterday: 35 °F

High & Low Weather Summary for the Past Weeks

 TemperatureHumidityPressure
High73 °F (May 24, 3:30 PM)100% (May 16, 8:30 AM)30.31 "Hg (May 16, 8:30 AM)
Low32 °F (May 29, 9:30 PM)28% (May 21, 4:30 PM)29.59 "Hg (May 17, 4:30 PM)
Average46 °F77%29.99 "Hg
* Reported May 15 3:30 AM — May 30 3:30 AM, Paradise, Weather by CustomWeather, © 2016

Note: Actual official high and low records may vary slightly from our data, if they occured in-between our weather recording intervals... More about our weather records

Advertising

Paradise Weather History for the Previous 24 Hours

Scroll right to see more
 ConditionsComfort  
Time TempWeatherWind HumidityBarometerVisibility
3:30 AM
Mon, May 30
32 °FClear.2 mph93%30.25 "Hg15 mi
2:30 AM34 °FClear.2 mph87%30.25 "Hg15 mi
1:30 AM34 °FPassing clouds.8 mph93%30.24 "Hg15 mi
12:30 AM34 °FPassing clouds.2 mph93%30.25 "Hg15 mi
11:30 PM
Sun, May 29
32 °FPassing clouds.7 mph93%30.26 "Hg15 mi
10:30 PM32 °FPassing clouds.6 mph93%30.27 "Hg15 mi
9:30 PM32 °FPassing clouds.2 mph93%30.27 "Hg15 mi
8:30 PM34 °FPassing clouds.3 mph87%30.25 "Hg15 mi
7:30 PM37 °FPassing clouds.6 mph81%30.24 "Hg15 mi
6:30 PM37 °FPassing clouds.12 mph81%30.23 "Hg15 mi
5:30 PM37 °FOvercast.8 mph87%30.23 "Hg15 mi
4:30 PM37 °FOvercast.14 mph81%30.23 "Hg15 mi
3:30 PM37 °FLow clouds.13 mph87%30.21 "Hg15 mi
2:30 PM37 °FLow clouds.13 mph87%30.22 "Hg15 mi
1:30 PM37 °FLow clouds.16 mph87%30.19 "Hg15 mi
12:30 PM37 °FLow clouds.20 mph87%30.19 "Hg15 mi
11:30 AM37 °FLow clouds.17 mph87%30.18 "Hg15 mi
10:30 AM36 °FDrizzle. Low clouds.14 mph93%30.17 "Hg12 mi
9:30 AM36 °FLow clouds.18 mph93%30.16 "Hg12 mi
8:30 AM36 °FFog.16 mph93%30.16 "Hg1 mi
7:30 AM36 °FMostly cloudy.15 mph93%30.12 "Hg15 mi
6:30 AM34 °FDrizzle. Low clouds.13 mph100%30.08 "Hg12 mi
5:30 AM34 °FDrizzle. Fog.14 mph100%30.07 "Hg1 mi
4:30 AM34 °FDrizzle. Fog.12 mph100%30.05 "Hg1 mi
Weather by CustomWeather, © 2016

See weather overviewHow to use our weather pages